User: anonymous   Login
Location: Homewood
(41.1836°S, 175.9581°E)
Time: 16:11:42
(UTC+00:00)
Language:

Cosmos 1633 Rocket - Orbit

View from above orbital plane
View from above orbital plane
View from above satellite
View from above satellite

Ground track
Ground track

The orbit data is extracted from the following two-line orbital elements,

1 15593U 85020B   24177.54555233  .00000574  00000-0  63517-4 0  9993
2 15593  82.5373  21.0511 0010798 195.6493 164.4391 14.85603992124973
Epoch (UTC): 25 June 2024 13:05:35
Eccentricity: 0.0010798
inclination: 82.5373°
perigee height: 604 km
apogee height: 619 km
right ascension of ascending node: 21.0511°
argument of perigee: 195.6493°
revolutions per day: 14.85603992
mean anomaly at epoch: 164.4391°
orbit number at epoch: 12497

The dashed part of the orbit path shows where the satellite is in the earth's shadow,  

DLR